Time,TemperatureF,DewpointF,PressureIn,WindDirection,WindDirectionDegrees,WindSpeedMPH,WindSpeedGustMPH,Humidity,HourlyPrecipIn,Conditions,Clouds,dailyrainin,SoftwareType,DateUTC
2013-02-25 00:04:00,58.8,32.0,28.95,SSW,204,8.0,8.0,36,0.00,,,0.00,meteohub,2013-02-25 06:04:00,
2013-02-25 00:09:00,58.8,32.0,28.95,ENE,67,0.0,8.0,36,0.00,,,0.00,meteohub,2013-02-25 06:09:00,
2013-02-25 00:14:00,58.8,32.0,28.95,SW,227,4.0,8.0,36,0.00,,,0.00,meteohub,2013-02-25 06:14:00,
2013-02-25 00:19:00,58.8,32.0,28.95,WSW,252,3.0,9.0,36,0.00,,,0.00,meteohub,2013-02-25 06:19:00,
2013-02-25 00:24:00,58.6,31.8,28.95,SSW,192,4.0,9.0,36,0.00,,,0.00,meteohub,2013-02-25 06:24:00,
2013-02-25 00:29:00,58.5,31.6,28.95,WSW,242,6.0,7.0,36,0.00,,,0.00,meteohub,2013-02-25 06:29:00,
2013-02-25 00:34:00,58.3,31.5,28.95,ENE,71,3.0,7.0,36,0.00,,,0.00,meteohub,2013-02-25 06:34:00,
2013-02-25 00:39:00,58.1,31.3,28.95,SE,138,5.0,8.0,36,0.00,,,0.00,meteohub,2013-02-25 06:39:00,
2013-02-25 00:44:00,57.9,31.1,28.95,SW,231,0.0,8.0,36,0.00,,,0.00,meteohub,2013-02-25 06:44:00,
2013-02-25 00:49:00,57.9,31.1,28.95,SSE,149,2.0,6.0,36,0.00,,,0.00,meteohub,2013-02-25 06:49:00,
2013-02-25 00:54:00,57.7,30.9,28.95,SE,138,3.0,5.0,36,0.00,,,0.00,meteohub,2013-02-25 06:54:00,
2013-02-25 01:00:00,57.6,30.7,28.95,SSW,199,2.0,6.0,36,0.00,,,0.00,meteohub,2013-02-25 07:00:00,
2013-02-25 01:05:00,57.6,30.7,28.95,SSW,199,0.0,6.0,36,0.00,,,0.00,meteohub,2013-02-25 07:05:00,
2013-02-25 01:10:00,57.6,31.5,28.95,South,187,2.0,5.0,37,0.00,,,0.00,meteohub,2013-02-25 07:10:00,
2013-02-25 01:15:00,57.6,31.5,28.95,SSW,201,0.0,5.0,37,0.00,,,0.00,meteohub,2013-02-25 07:15:00,
2013-02-25 01:20:00,57.7,31.6,28.95,SSW,207,4.0,4.0,37,0.00,,,0.00,meteohub,2013-02-25 07:20:00,
2013-02-25 01:25:00,57.7,31.6,28.95,SW,221,0.0,5.0,37,0.00,,,0.00,meteohub,2013-02-25 07:25:00,
2013-02-25 01:30:00,57.9,31.8,28.95,ESE,118,2.0,5.0,37,0.00,,,0.00,meteohub,2013-02-25 07:30:00,
2013-02-25 01:35:00,57.9,31.1,28.95,SSW,201,0.0,5.0,36,0.00,,,0.00,meteohub,2013-02-25 07:35:00,
2013-02-25 01:40:00,58.1,31.3,28.95,SW,222,0.0,5.0,36,0.00,,,0.00,meteohub,2013-02-25 07:40:00,
2013-02-25 01:45:00,58.1,31.3,28.98,SW,215,3.0,5.0,36,0.00,,,0.00,meteohub,2013-02-25 07:45:00,
2013-02-25 01:50:00,58.1,31.3,28.98,SW,217,0.0,4.0,36,0.00,,,0.00,meteohub,2013-02-25 07:50:00,
2013-02-25 01:55:00,58.1,31.3,28.98,SW,231,3.0,4.0,36,0.00,,,0.00,meteohub,2013-02-25 07:55:00,
2013-02-25 02:00:00,58.1,31.3,28.98,ESE,108,0.0,3.0,36,0.00,,,0.00,meteohub,2013-02-25 08:00:00,
2013-02-25 02:05:00,58.1,31.3,28.98,SSE,166,0.0,3.0,36,0.00,,,0.00,meteohub,2013-02-25 08:05:00,
2013-02-25 02:10:00,58.1,31.3,28.98,SSE,163,0.0,4.0,36,0.00,,,0.00,meteohub,2013-02-25 08:10:00,
2013-02-25 02:15:00,58.1,31.3,28.98,NE,51,0.0,4.0,36,0.00,,,0.00,meteohub,2013-02-25 08:15:00,
2013-02-25 02:20:00,58.1,31.3,28.98,NNE,29,0.0,4.0,36,0.00,,,0.00,meteohub,2013-02-25 08:20:00,
2013-02-25 02:25:00,58.1,31.3,28.98,ENE,78,0.0,3.0,36,0.00,,,0.00,meteohub,2013-02-25 08:25:00,
2013-02-25 02:31:00,58.1,31.3,28.98,ENE,78,0.0,2.0,36,0.00,,,0.00,meteohub,2013-02-25 08:31:00,
2013-02-25 02:36:00,58.1,31.3,28.98,ENE,78,0.0,0.0,36,0.00,,,0.00,meteohub,2013-02-25 08:36:00,
2013-02-25 02:41:00,58.1,31.3,28.98,NW,312,0.0,0.0,36,0.00,,,0.00,meteohub,2013-02-25 08:41:00,
2013-02-25 02:46:00,58.1,31.3,29.01,WNW,292,0.0,0.0,36,0.00,,,0.00,meteohub,2013-02-25 08:46:00,
2013-02-25 02:51:00,58.1,31.3,29.01,NE,51,0.0,4.0,36,0.00,,,0.00,meteohub,2013-02-25 08:51:00,
2013-02-25 02:56:00,58.1,31.3,29.01,NE,51,0.0,4.0,36,0.00,,,0.00,meteohub,2013-02-25 08:56:00,
2013-02-25 03:01:00,58.1,31.3,29.01,NE,51,0.0,4.0,36,0.00,,,0.00,meteohub,2013-02-25 09:01:00,
2013-02-25 03:06:00,58.1,31.3,29.01,NE,52,0.0,0.0,36,0.00,,,0.00,meteohub,2013-02-25 09:06:00,
2013-02-25 03:11:00,58.1,32.0,29.01,NE,53,0.0,0.0,37,0.00,,,0.00,meteohub,2013-02-25 09:11:00,
2013-02-25 03:16:00,57.9,31.8,28.98,NE,53,0.0,0.0,37,0.00,,,0.00,meteohub,2013-02-25 09:16:00,
2013-02-25 03:21:00,57.6,32.7,28.98,NE,53,0.0,0.0,39,0.00,,,0.00,meteohub,2013-02-25 09:21:00,
2013-02-25 03:26:00,57.0,34.2,28.98,NE,53,0.0,0.0,42,0.00,,,0.00,meteohub,2013-02-25 09:26:00,
2013-02-25 03:31:00,56.5,34.9,28.98,NE,53,0.0,0.0,44,0.00,,,0.00,meteohub,2013-02-25 09:31:00,
2013-02-25 03:37:00,55.6,35.1,28.98,NE,53,0.0,0.0,46,0.00,,,0.00,meteohub,2013-02-25 09:37:00,
2013-02-25 03:42:00,55.0,35.8,28.98,NE,53,0.0,0.0,48,0.00,,,0.00,meteohub,2013-02-25 09:42:00,
2013-02-25 03:47:00,54.7,36.3,28.98,NE,53,0.0,0.0,50,0.00,,,0.00,meteohub,2013-02-25 09:47:00,
2013-02-25 03:52:00,54.5,37.2,28.98,NE,53,0.0,0.0,52,0.00,,,0.00,meteohub,2013-02-25 09:52:00,
2013-02-25 03:57:00,54.3,37.9,28.98,NE,53,0.0,0.0,54,0.00,,,0.00,meteohub,2013-02-25 09:57:00,
2013-02-25 04:02:00,54.1,38.3,28.98,NE,53,0.0,0.0,55,0.00,,,0.00,meteohub,2013-02-25 10:02:00,
2013-02-25 04:07:00,54.0,38.7,28.98,NE,53,0.0,0.0,56,0.00,,,0.00,meteohub,2013-02-25 10:07:00,
2013-02-25 04:12:00,53.8,38.8,28.98,NE,53,0.0,0.0,57,0.00,,,0.00,meteohub,2013-02-25 10:12:00,
2013-02-25 04:17:00,53.4,39.0,28.98,ESE,110,0.0,3.0,58,0.00,,,0.00,meteohub,2013-02-25 10:17:00,
2013-02-25 04:22:00,53.2,39.2,28.98,SE,140,0.0,4.0,59,0.00,,,0.00,meteohub,2013-02-25 10:22:00,
2013-02-25 04:27:00,53.1,39.2,28.98,SE,142,2.0,4.0,59,0.00,,,0.00,meteohub,2013-02-25 10:27:00,
2013-02-25 04:32:00,53.1,39.2,28.95,East,81,0.0,5.0,59,0.00,,,0.00,meteohub,2013-02-25 10:32:00,
2013-02-25 04:37:00,53.1,38.7,28.95,East,87,2.0,5.0,58,0.00,,,0.00,meteohub,2013-02-25 10:37:00,
2013-02-25 04:42:00,53.1,38.7,28.95,East,85,3.0,5.0,58,0.00,,,0.00,meteohub,2013-02-25 10:42:00,
2013-02-25 04:47:00,53.1,37.8,28.95,SE,139,3.0,4.0,56,0.00,,,0.00,meteohub,2013-02-25 10:47:00,
2013-02-25 04:52:00,53.1,36.9,28.95,ENE,60,0.0,4.0,54,0.00,,,0.00,meteohub,2013-02-25 10:52:00,
2013-02-25 04:57:00,53.1,36.3,28.95,North,3,2.0,4.0,53,0.00,,,0.00,meteohub,2013-02-25 10:57:00,
2013-02-25 05:02:00,53.1,35.4,28.95,NNE,24,0.0,4.0,51,0.00,,,0.00,meteohub,2013-02-25 11:02:00,
2013-02-25 05:07:00,53.1,35.4,28.95,SE,124,2.0,4.0,51,0.00,,,0.00,meteohub,2013-02-25 11:07:00,
2013-02-25 05:12:00,53.1,35.4,28.95,SE,142,2.0,4.0,51,0.00,,,0.00,meteohub,2013-02-25 11:12:00,
2013-02-25 05:17:00,53.2,35.1,28.92,NE,55,4.0,4.0,50,0.00,,,0.00,meteohub,2013-02-25 11:17:00,
2013-02-25 05:22:00,53.2,35.1,28.92,South,185,0.0,4.0,50,0.00,,,0.00,meteohub,2013-02-25 11:22:00,
2013-02-25 05:27:00,53.1,34.3,28.92,ENE,71,3.0,5.0,49,0.00,,,0.00,meteohub,2013-02-25 11:27:00,
2013-02-25 05:32:00,53.1,34.3,28.92,ESE,122,3.0,5.0,49,0.00,,,0.00,meteohub,2013-02-25 11:32:00,
2013-02-25 05:37:00,53.1,34.3,28.92,East,87,0.0,5.0,49,0.00,,,0.00,meteohub,2013-02-25 11:37:00,
2013-02-25 05:42:00,53.1,34.3,28.92,NNE,12,0.0,4.0,49,0.00,,,0.00,meteohub,2013-02-25 11:42:00,
2013-02-25 05:47:00,53.1,34.3,28.92,East,94,3.0,4.0,49,0.00,,,0.00,meteohub,2013-02-25 11:47:00,
2013-02-25 05:52:00,53.1,34.3,28.92,NNE,33,0.0,5.0,49,0.00,,,0.00,meteohub,2013-02-25 11:52:00,
2013-02-25 05:57:00,53.1,34.3,28.92,South,186,2.0,5.0,49,0.00,,,0.00,meteohub,2013-02-25 11:57:00,
2013-02-25 06:02:00,53.1,34.3,28.92,SE,138,0.0,5.0,49,0.00,,,0.00,meteohub,2013-02-25 12:02:00,
2013-02-25 06:07:00,53.1,34.3,28.92,SE,126,0.0,4.0,49,0.00,,,0.00,meteohub,2013-02-25 12:07:00,
2013-02-25 06:12:00,53.1,34.9,28.92,SSE,167,0.0,4.0,50,0.00,,,0.00,meteohub,2013-02-25 12:12:00,
2013-02-25 06:17:00,52.9,34.7,28.92,ESE,114,0.0,4.0,50,0.00,,,0.00,meteohub,2013-02-25 12:17:00,
2013-02-25 06:22:00,52.9,35.2,28.92,SSE,161,3.0,4.0,51,0.00,,,0.00,meteohub,2013-02-25 12:22:00,
2013-02-25 06:27:00,52.7,34.5,28.92,SSE,154,4.0,4.0,50,0.00,,,0.00,meteohub,2013-02-25 12:27:00,
2013-02-25 06:32:00,52.7,34.5,28.89,SE,138,2.0,5.0,50,0.00,,,0.00,meteohub,2013-02-25 12:32:00,
2013-02-25 06:37:00,52.7,34.5,28.89,ESE,113,3.0,5.0,50,0.00,,,0.00,meteohub,2013-02-25 12:37:00,
2013-02-25 06:42:00,52.9,34.7,28.89,East,97,0.0,5.0,50,0.00,,,0.00,meteohub,2013-02-25 12:42:00,
2013-02-25 06:47:00,52.7,34.5,28.89,SE,140,0.0,5.0,50,0.00,,,0.00,meteohub,2013-02-25 12:47:00,
2013-02-25 06:52:00,52.9,34.7,28.89,South,173,0.0,4.0,50,0.00,,,0.00,meteohub,2013-02-25 12:52:00,
2013-02-25 06:57:00,52.9,34.7,28.89,South,176,0.0,2.0,50,0.00,,,0.00,meteohub,2013-02-25 12:57:00,
2013-02-25 07:02:00,52.9,34.7,28.89,SE,146,0.0,2.0,50,0.00,,,0.00,meteohub,2013-02-25 13:02:00,
2013-02-25 07:08:00,53.1,34.9,28.89,WSW,238,0.0,0.0,50,0.00,,,0.00,meteohub,2013-02-25 13:08:00,
2013-02-25 07:13:00,53.1,34.9,28.92,WSW,240,0.0,0.0,50,0.00,,,0.00,meteohub,2013-02-25 13:13:00,
2013-02-25 07:18:00,53.1,34.9,28.92,WSW,246,0.0,4.0,50,0.00,,,0.00,meteohub,2013-02-25 13:18:00,
2013-02-25 07:23:00,52.9,35.2,28.92,SSW,213,0.0,4.0,51,0.00,,,0.00,meteohub,2013-02-25 13:23:00,
2013-02-25 07:28:00,52.7,35.1,28.92,SW,228,0.0,4.0,51,0.00,,,0.00,meteohub,2013-02-25 13:28:00,
2013-02-25 07:33:00,52.3,35.2,28.92,SW,228,0.0,4.0,52,0.00,,,0.00,meteohub,2013-02-25 13:33:00,
2013-02-25 07:38:00,52.2,35.6,28.92,SW,234,0.0,3.0,53,0.00,,,0.00,meteohub,2013-02-25 13:38:00,
2013-02-25 07:43:00,52.0,35.8,28.92,WSW,239,0.0,0.0,54,0.00,,,0.00,meteohub,2013-02-25 13:43:00,
2013-02-25 07:48:00,51.8,36.1,28.92,SE,141,0.0,4.0,55,0.00,,,0.00,meteohub,2013-02-25 13:48:00,
2013-02-25 07:54:00,51.8,36.7,28.92,SSW,195,0.0,4.0,56,0.00,,,0.00,meteohub,2013-02-25 13:54:00,
2013-02-25 07:59:00,51.8,37.0,28.95,SSW,195,0.0,4.0,57,0.00,,,0.00,meteohub,2013-02-25 13:59:00,
2013-02-25 08:04:00,52.0,37.6,28.95,SW,236,0.0,0.0,58,0.00,,,0.00,meteohub,2013-02-25 14:04:00,
2013-02-25 08:10:00,52.2,38.7,28.95,WNW,283,0.0,2.0,60,0.00,,,0.00,meteohub,2013-02-25 14:10:00,
2013-02-25 08:15:00,52.3,38.8,28.92,West,278,0.0,2.0,60,0.00,,,0.00,meteohub,2013-02-25 14:15:00,
2013-02-25 08:20:00,52.5,39.4,28.92,South,187,0.0,2.0,61,0.00,,,0.00,meteohub,2013-02-25 14:20:00,
2013-02-25 08:25:00,52.7,39.6,28.92,South,187,0.0,0.0,61,0.00,,,0.00,meteohub,2013-02-25 14:25:00,
2013-02-25 08:30:00,52.9,39.7,28.92,South,187,0.0,0.0,61,0.00,,,0.00,meteohub,2013-02-25 14:30:00,
2013-02-25 08:35:00,53.1,39.6,28.92,South,187,0.0,0.0,60,0.00,,,0.00,meteohub,2013-02-25 14:35:00,
2013-02-25 08:40:00,53.2,39.7,28.92,SSE,162,0.0,0.0,60,0.00,,,0.00,meteohub,2013-02-25 14:40:00,
2013-02-25 08:45:00,53.4,39.9,28.92,SSE,162,0.0,0.0,60,0.00,,,0.00,meteohub,2013-02-25 14:45:00,
2013-02-25 08:50:00,53.8,39.7,28.92,SSE,162,0.0,0.0,59,0.00,,,0.00,meteohub,2013-02-25 14:50:00,
2013-02-25 08:56:00,54.0,39.9,28.92,SSW,196,0.0,0.0,59,0.00,,,0.00,meteohub,2013-02-25 14:56:00,
2013-02-25 09:01:00,54.3,40.3,28.92,SSW,196,0.0,0.0,59,0.00,,,0.00,meteohub,2013-02-25 15:01:00,
2013-02-25 09:06:00,54.9,40.3,28.92,SSW,192,0.0,0.0,58,0.00,,,0.00,meteohub,2013-02-25 15:06:00,
2013-02-25 09:11:00,55.2,40.3,28.92,SSW,192,0.0,0.0,57,0.00,,,0.00,meteohub,2013-02-25 15:11:00,
2013-02-25 09:16:00,55.4,39.9,28.92,SSW,192,0.0,0.0,56,0.00,,,0.00,meteohub,2013-02-25 15:16:00,
2013-02-25 09:21:00,55.8,40.3,28.92,SSW,192,0.0,0.0,56,0.00,,,0.00,meteohub,2013-02-25 15:21:00,
2013-02-25 09:26:00,55.9,39.9,28.92,SSW,192,0.0,0.0,55,0.00,,,0.00,meteohub,2013-02-25 15:26:00,
2013-02-25 09:31:00,56.1,39.7,28.92,West,266,0.0,0.0,54,0.00,,,0.00,meteohub,2013-02-25 15:31:00,
2013-02-25 09:36:00,56.3,39.9,28.92,SW,224,0.0,3.0,54,0.00,,,0.00,meteohub,2013-02-25 15:36:00,
2013-02-25 09:41:00,56.7,40.3,28.92,WSW,248,0.0,3.0,54,0.00,,,0.00,meteohub,2013-02-25 15:41:00,
2013-02-25 09:46:00,56.7,40.3,28.92,WSW,256,0.0,3.0,54,0.00,,,0.00,meteohub,2013-02-25 15:46:00,
2013-02-25 09:51:00,56.5,40.5,28.92,WSW,240,3.0,4.0,55,0.00,,,0.00,meteohub,2013-02-25 15:51:00,
2013-02-25 09:56:00,56.1,40.1,28.92,West,263,4.0,4.0,55,0.00,,,0.00,meteohub,2013-02-25 15:56:00,
2013-02-25 10:01:00,55.6,39.2,28.92,WNW,297,3.0,8.0,54,0.00,,,0.00,meteohub,2013-02-25 16:01:00,
2013-02-25 10:07:00,54.7,36.3,28.92,SW,228,4.0,8.0,50,0.00,,,0.00,meteohub,2013-02-25 16:07:00,
2013-02-25 10:12:00,53.8,35.1,28.92,West,260,4.0,8.0,49,0.00,,,0.00,meteohub,2013-02-25 16:12:00,
2013-02-25 10:17:00,53.2,34.5,28.92,NW,317,6.0,8.0,49,0.00,,,0.00,meteohub,2013-02-25 16:17:00,
2013-02-25 10:22:00,53.1,34.9,28.92,West,262,6.0,8.0,50,0.00,,,0.00,meteohub,2013-02-25 16:22:00,
2013-02-25 10:27:00,52.9,33.8,28.92,WNW,292,0.0,8.0,48,0.00,,,0.00,meteohub,2013-02-25 16:27:00,
2013-02-25 10:32:00,52.9,33.8,28.95,West,277,4.0,8.0,48,0.00,,,0.00,meteohub,2013-02-25 16:32:00,
2013-02-25 10:37:00,52.9,33.8,28.95,West,266,4.0,8.0,48,0.00,,,0.00,meteohub,2013-02-25 16:37:00,
2013-02-25 10:42:00,52.7,33.1,28.95,WSW,253,3.0,8.0,47,0.00,,,0.00,meteohub,2013-02-25 16:42:00,
2013-02-25 10:47:00,52.9,33.8,28.92,WNW,301,0.0,8.0,48,0.00,,,0.00,meteohub,2013-02-25 16:47:00,
2013-02-25 10:52:00,53.2,32.4,28.92,WNW,293,3.0,6.0,45,0.00,,,0.00,meteohub,2013-02-25 16:52:00,
2013-02-25 10:57:00,53.1,30.6,28.92,WNW,294,4.0,6.0,42,0.00,,,0.00,meteohub,2013-02-25 16:57:00,
2013-02-25 11:02:00,52.5,29.5,28.95,WNW,286,0.0,8.0,41,0.00,,,0.00,meteohub,2013-02-25 17:02:00,
2013-02-25 11:07:00,52.3,29.8,28.95,WNW,300,3.0,8.0,42,0.00,,,0.00,meteohub,2013-02-25 17:07:00,
2013-02-25 11:12:00,52.9,29.8,28.95,WNW,302,4.0,8.0,41,0.00,,,0.00,meteohub,2013-02-25 17:12:00,
2013-02-25 11:17:00,53.1,29.3,28.92,SW,220,3.0,8.0,40,0.00,,,0.00,meteohub,2013-02-25 17:17:00,
2013-02-25 11:22:00,53.6,29.3,28.92,West,279,3.0,8.0,39,0.00,,,0.00,meteohub,2013-02-25 17:22:00,
2013-02-25 11:27:00,54.0,29.5,28.92,WNW,296,3.0,6.0,39,0.00,,,0.00,meteohub,2013-02-25 17:27:00,
2013-02-25 11:32:00,54.7,29.5,28.92,WNW,297,3.0,6.0,38,0.00,,,0.00,meteohub,2013-02-25 17:32:00,
2013-02-25 11:37:00,55.0,28.6,28.92,NW,310,3.0,4.0,36,0.00,,,0.00,meteohub,2013-02-25 17:37:00,
2013-02-25 11:42:00,54.9,28.4,28.92,WSW,258,3.0,8.0,36,0.00,,,0.00,meteohub,2013-02-25 17:42:00,
2013-02-25 11:47:00,54.7,28.2,28.92,WSW,254,3.0,8.0,36,0.00,,,0.00,meteohub,2013-02-25 17:47:00,
2013-02-25 11:52:00,55.0,28.6,28.92,WNW,294,4.0,8.0,36,0.00,,,0.00,meteohub,2013-02-25 17:52:00,
2013-02-25 11:57:00,55.9,29.3,28.92,NW,310,2.0,7.0,36,0.00,,,0.00,meteohub,2013-02-25 17:57:00,
2013-02-25 12:02:00,56.7,29.3,28.92,WNW,298,4.0,5.0,35,0.00,,,0.00,meteohub,2013-02-25 18:02:00,
2013-02-25 12:07:00,57.2,28.4,28.92,SW,233,3.0,5.0,33,0.00,,,0.00,meteohub,2013-02-25 18:07:00,
2013-02-25 12:13:00,56.7,27.9,28.92,WSW,254,0.0,7.0,33,0.00,,,0.00,meteohub,2013-02-25 18:13:00,
2013-02-25 12:18:00,57.0,28.2,28.92,NW,305,4.0,7.0,33,0.00,,,0.00,meteohub,2013-02-25 18:18:00,
2013-02-25 12:23:00,57.4,27.7,28.92,NW,305,3.0,7.0,32,0.00,,,0.00,meteohub,2013-02-25 18:23:00,
2013-02-25 12:28:00,58.5,28.8,28.89,WNW,288,3.0,7.0,32,0.00,,,0.00,meteohub,2013-02-25 18:28:00,
2013-02-25 12:33:00,58.5,26.2,28.89,West,259,3.0,7.0,29,0.00,,,0.00,meteohub,2013-02-25 18:33:00,
2013-02-25 12:38:00,58.1,26.1,28.89,West,278,3.0,9.0,29,0.00,,,0.00,meteohub,2013-02-25 18:38:00,
2013-02-25 12:43:00,57.7,25.7,28.89,WSW,249,4.0,9.0,29,0.00,,,0.00,meteohub,2013-02-25 18:43:00,
2013-02-25 12:48:00,57.6,24.6,28.89,WNW,292,3.0,9.0,28,0.00,,,0.00,meteohub,2013-02-25 18:48:00,
2013-02-25 12:53:00,57.7,25.7,28.89,West,276,2.0,8.0,29,0.00,,,0.00,meteohub,2013-02-25 18:53:00,
2013-02-25 12:59:00,58.5,24.6,28.89,SW,232,3.0,7.0,27,0.00,,,0.00,meteohub,2013-02-25 18:59:00,
2013-02-25 13:04:00,58.8,25.0,28.89,WNW,302,5.0,7.0,27,0.00,,,0.00,meteohub,2013-02-25 19:04:00,
2013-02-25 13:09:00,58.5,24.6,28.89,WNW,298,0.0,8.0,27,0.00,,,0.00,meteohub,2013-02-25 19:09:00,
2013-02-25 13:14:00,59.0,25.0,28.89,WSW,247,4.0,8.0,27,0.00,,,0.00,meteohub,2013-02-25 19:14:00,
2013-02-25 13:19:00,58.6,23.9,28.89,SW,231,4.0,8.0,26,0.00,,,0.00,meteohub,2013-02-25 19:19:00,
2013-02-25 13:24:00,58.3,24.4,28.89,NW,317,4.0,8.0,27,0.00,,,0.00,meteohub,2013-02-25 19:24:00,
2013-02-25 13:29:00,59.2,24.3,28.86,WSW,253,3.0,9.0,26,0.00,,,0.00,meteohub,2013-02-25 19:29:00,
2013-02-25 13:34:00,60.1,25.2,28.86,South,184,4.0,9.0,26,0.00,,,0.00,meteohub,2013-02-25 19:34:00,
2013-02-25 13:39:00,60.4,24.4,28.86,WSW,258,3.0,9.0,25,0.00,,,0.00,meteohub,2013-02-25 19:39:00,
2013-02-25 13:44:00,59.7,23.9,28.86,West,263,3.0,10.0,25,0.00,,,0.00,meteohub,2013-02-25 19:44:00,
2013-02-25 13:49:00,59.4,23.5,28.86,WSW,249,2.0,10.0,25,0.00,,,0.00,meteohub,2013-02-25 19:49:00,
2013-02-25 13:54:00,58.8,24.1,28.86,NW,310,3.0,10.0,26,0.00,,,0.00,meteohub,2013-02-25 19:54:00,
2013-02-25 13:59:00,59.2,24.3,28.83,West,281,6.0,6.0,26,0.00,,,0.00,meteohub,2013-02-25 19:59:00,
2013-02-25 14:04:00,59.4,23.5,28.83,WNW,299,4.0,4.0,25,0.00,,,0.00,meteohub,2013-02-25 20:04:00,
2013-02-25 14:10:00,58.6,23.9,28.83,West,277,9.0,9.0,26,0.00,,,0.00,meteohub,2013-02-25 20:10:00,
2013-02-25 14:15:00,57.4,22.8,28.86,WSW,256,4.0,9.0,26,0.00,,,0.00,meteohub,2013-02-25 20:15:00,
2013-02-25 14:20:00,57.0,23.4,28.86,WNW,288,4.0,9.0,27,0.00,,,0.00,meteohub,2013-02-25 20:20:00,
2013-02-25 14:25:00,56.8,23.2,28.86,West,275,3.0,9.0,27,0.00,,,0.00,meteohub,2013-02-25 20:25:00,
2013-02-25 14:30:00,56.8,22.3,28.86,WNW,287,5.0,7.0,26,0.00,,,0.00,meteohub,2013-02-25 20:30:00,
2013-02-25 14:35:00,55.9,21.6,28.86,WSW,252,4.0,10.0,26,0.00,,,0.00,meteohub,2013-02-25 20:35:00,
2013-02-25 14:40:00,55.9,22.5,28.86,WNW,283,3.0,10.0,27,0.00,,,0.00,meteohub,2013-02-25 20:40:00,
2013-02-25 14:45:00,56.3,21.9,28.86,WSW,248,3.0,8.0,26,0.00,,,0.00,meteohub,2013-02-25 20:45:00,
2013-02-25 14:50:00,56.3,21.9,28.86,NNW,331,5.0,9.0,26,0.00,,,0.00,meteohub,2013-02-25 20:50:00,
2013-02-25 14:55:00,55.9,21.6,28.86,NW,310,3.0,9.0,26,0.00,,,0.00,meteohub,2013-02-25 20:55:00,
2013-02-25 15:00:00,55.8,21.4,28.86,WSW,244,3.0,9.0,26,0.00,,,0.00,meteohub,2013-02-25 21:00:00,
2013-02-25 15:05:00,55.8,21.4,28.86,NW,309,3.0,9.0,26,0.00,,,0.00,meteohub,2013-02-25 21:05:00,
2013-02-25 15:10:00,55.0,20.8,28.86,WSW,247,3.0,8.0,26,0.00,,,0.00,meteohub,2013-02-25 21:10:00,
2013-02-25 15:15:00,54.9,20.7,28.86,WSW,248,4.0,8.0,26,0.00,,,0.00,meteohub,2013-02-25 21:15:00,
2013-02-25 15:21:00,54.5,20.3,28.86,WNW,291,5.0,8.0,26,0.00,,,0.00,meteohub,2013-02-25 21:21:00,
2013-02-25 15:26:00,54.0,19.8,28.86,West,261,4.0,10.0,26,0.00,,,0.00,meteohub,2013-02-25 21:26:00,
2013-02-25 15:31:00,53.2,19.2,28.86,WNW,284,5.0,10.0,26,0.00,,,0.00,meteohub,2013-02-25 21:31:00,
2013-02-25 15:36:00,52.9,19.8,28.86,WNW,290,4.0,10.0,27,0.00,,,0.00,meteohub,2013-02-25 21:36:00,
2013-02-25 15:41:00,52.5,19.4,28.86,West,271,4.0,9.0,27,0.00,,,0.00,meteohub,2013-02-25 21:41:00,
2013-02-25 15:46:00,52.3,19.4,28.89,West,274,3.0,9.0,27,0.00,,,0.00,meteohub,2013-02-25 21:46:00,
2013-02-25 15:51:00,51.8,18.9,28.89,WNW,290,4.0,9.0,27,0.00,,,0.00,meteohub,2013-02-25 21:51:00,
2013-02-25 15:56:00,51.3,18.3,28.89,WNW,299,3.0,9.0,27,0.00,,,0.00,meteohub,2013-02-25 21:56:00,
2013-02-25 16:01:00,50.7,18.0,28.89,SW,219,4.0,9.0,27,0.00,,,0.00,meteohub,2013-02-25 22:01:00,
2013-02-25 16:06:00,50.7,18.0,28.89,West,278,4.0,8.0,27,0.00,,,0.00,meteohub,2013-02-25 22:06:00,
2013-02-25 16:11:00,50.5,17.8,28.89,NW,304,3.0,9.0,27,0.00,,,0.00,meteohub,2013-02-25 22:11:00,
2013-02-25 16:16:00,50.5,18.7,28.89,WSW,249,4.0,9.0,28,0.00,,,0.00,meteohub,2013-02-25 22:16:00,
2013-02-25 16:21:00,50.7,18.9,28.89,NW,319,2.0,9.0,28,0.00,,,0.00,meteohub,2013-02-25 22:21:00,
2013-02-25 16:26:00,50.5,18.7,28.89,West,265,2.0,8.0,28,0.00,,,0.00,meteohub,2013-02-25 22:26:00,
2013-02-25 16:31:00,50.0,18.1,28.89,SSW,200,3.0,8.0,28,0.00,,,0.00,meteohub,2013-02-25 22:31:00,
2013-02-25 16:36:00,49.6,18.7,28.89,West,277,2.0,8.0,29,0.00,,,0.00,meteohub,2013-02-25 22:36:00,
2013-02-25 16:41:00,49.5,18.5,28.89,WSW,247,3.0,7.0,29,0.00,,,0.00,meteohub,2013-02-25 22:41:00,
2013-02-25 16:47:00,49.1,18.1,28.89,WSW,250,4.0,7.0,29,0.00,,,0.00,meteohub,2013-02-25 22:47:00,
2013-02-25 16:52:00,48.7,18.7,28.89,WNW,282,3.0,7.0,30,0.00,,,0.00,meteohub,2013-02-25 22:52:00,
2013-02-25 16:57:00,48.9,19.6,28.89,West,266,4.0,7.0,31,0.00,,,0.00,meteohub,2013-02-25 22:57:00,
2013-02-25 17:02:00,48.7,19.4,28.89,West,271,4.0,7.0,31,0.00,,,0.00,meteohub,2013-02-25 23:02:00,
2013-02-25 17:07:00,48.0,19.6,28.89,WNW,288,3.0,6.0,32,0.00,,,0.00,meteohub,2013-02-25 23:07:00,
2013-02-25 17:12:00,47.7,20.7,28.89,SW,234,4.0,6.0,34,0.00,,,0.00,meteohub,2013-02-25 23:12:00,
2013-02-25 17:17:00,47.1,22.1,28.89,WNW,290,3.0,9.0,37,0.00,,,0.00,meteohub,2013-02-25 23:17:00,
2013-02-25 17:22:00,46.8,21.9,28.89,SW,214,4.0,9.0,37,0.00,,,0.00,meteohub,2013-02-25 23:22:00,
2013-02-25 17:27:00,46.8,22.5,28.89,WSW,250,3.0,9.0,38,0.00,,,0.00,meteohub,2013-02-25 23:27:00,
2013-02-25 17:32:00,46.6,23.0,28.89,WNW,303,3.0,6.0,39,0.00,,,0.00,meteohub,2013-02-25 23:32:00,
2013-02-25 17:37:00,46.4,23.4,28.89,WNW,300,4.0,6.0,40,0.00,,,0.00,meteohub,2013-02-25 23:37:00,
2013-02-25 17:42:00,46.0,23.7,28.89,West,271,3.0,8.0,41,0.00,,,0.00,meteohub,2013-02-25 23:42:00,
2013-02-25 17:47:00,46.0,24.8,28.89,West,274,3.0,8.0,43,0.00,,,0.00,meteohub,2013-02-25 23:47:00,
2013-02-25 17:52:00,45.9,24.6,28.89,WSW,237,0.0,8.0,43,0.00,,,0.00,meteohub,2013-02-25 23:52:00,
2013-02-25 17:57:00,45.9,25.2,28.89,West,280,0.0,6.0,44,0.00,,,0.00,meteohub,2013-02-25 23:57:00,
2013-02-25 18:02:00,45.9,25.7,28.89,NW,317,0.0,5.0,45,0.00,,,0.00,meteohub,2013-02-26 00:02:00,
2013-02-25 18:07:00,45.3,25.7,28.89,WNW,300,3.0,5.0,46,0.00,,,0.00,meteohub,2013-02-26 00:07:00,
2013-02-25 18:12:00,44.4,25.5,28.89,NW,313,2.0,6.0,47,0.00,,,0.00,meteohub,2013-02-26 00:12:00,
2013-02-25 18:17:00,43.9,25.9,28.89,SSW,204,4.0,6.0,49,0.00,,,0.00,meteohub,2013-02-26 00:17:00,
2013-02-25 18:22:00,43.2,25.3,28.89,WNW,302,3.0,6.0,49,0.00,,,0.00,meteohub,2013-02-26 00:22:00,
2013-02-25 18:27:00,42.6,24.8,28.89,WNW,303,3.0,6.0,49,0.00,,,0.00,meteohub,2013-02-26 00:27:00,
2013-02-25 18:32:00,42.3,24.4,28.92,NNW,331,3.0,6.0,49,0.00,,,0.00,meteohub,2013-02-26 00:32:00,
2013-02-25 18:37:00,41.9,24.1,28.92,WNW,301,3.0,7.0,49,0.00,,,0.00,meteohub,2013-02-26 00:37:00,
2013-02-25 18:42:00,41.7,24.4,28.92,NNW,332,3.0,7.0,50,0.00,,,0.00,meteohub,2013-02-26 00:42:00,
2013-02-25 18:47:00,41.4,24.1,28.92,NW,307,3.0,6.0,50,0.00,,,0.00,meteohub,2013-02-26 00:47:00,
2013-02-25 18:52:00,41.0,23.7,28.92,NW,314,3.0,6.0,50,0.00,,,0.00,meteohub,2013-02-26 00:52:00,
2013-02-25 18:57:00,40.8,23.5,28.92,NW,314,3.0,7.0,50,0.00,,,0.00,meteohub,2013-02-26 00:57:00,
2013-02-25 19:02:00,40.5,23.4,28.92,NW,310,4.0,7.0,50,0.00,,,0.00,meteohub,2013-02-26 01:02:00,
2013-02-25 19:07:00,40.5,22.8,28.92,NNW,344,3.0,6.0,49,0.00,,,0.00,meteohub,2013-02-26 01:07:00,
2013-02-25 19:12:00,40.5,22.8,28.92,West,268,2.0,6.0,49,0.00,,,0.00,meteohub,2013-02-26 01:12:00,
2013-02-25 19:17:00,40.5,22.8,28.95,NW,304,3.0,10.0,49,0.00,,,0.00,meteohub,2013-02-26 01:17:00,
2013-02-25 19:22:00,40.5,22.8,28.95,NW,305,3.0,10.0,49,0.00,,,0.00,meteohub,2013-02-26 01:22:00,
2013-02-25 19:27:00,40.5,22.8,28.95,NW,307,5.0,6.0,49,0.00,,,0.00,meteohub,2013-02-26 01:27:00,
2013-02-25 19:32:00,40.5,22.8,28.92,WNW,301,4.0,6.0,49,0.00,,,0.00,meteohub,2013-02-26 01:32:00,
2013-02-25 19:37:00,40.5,22.8,28.92,NW,319,3.0,6.0,49,0.00,,,0.00,meteohub,2013-02-26 01:37:00,
2013-02-25 19:42:00,40.5,22.8,28.92,NW,312,2.0,6.0,49,0.00,,,0.00,meteohub,2013-02-26 01:42:00,
2013-02-25 19:47:00,40.5,22.8,28.95,NNW,338,5.0,6.0,49,0.00,,,0.00,meteohub,2013-02-26 01:47:00,
2013-02-25 19:52:00,40.5,22.8,28.95,NW,317,3.0,6.0,49,0.00,,,0.00,meteohub,2013-02-26 01:52:00,
2013-02-25 19:57:00,40.5,22.8,28.95,NW,311,3.0,6.0,49,0.00,,,0.00,meteohub,2013-02-26 01:57:00,
2013-02-25 20:02:00,40.5,22.8,28.95,NW,316,3.0,5.0,49,0.00,,,0.00,meteohub,2013-02-26 02:02:00,
2013-02-25 20:07:00,40.6,23.0,28.95,NW,319,3.0,6.0,49,0.00,,,0.00,meteohub,2013-02-26 02:07:00,
2013-02-25 20:12:00,40.6,23.5,28.95,WNW,289,0.0,6.0,50,0.00,,,0.00,meteohub,2013-02-26 02:12:00,
2013-02-25 20:17:00,40.6,23.5,28.95,WNW,301,4.0,6.0,50,0.00,,,0.00,meteohub,2013-02-26 02:17:00,
2013-02-25 20:22:00,40.6,23.5,28.95,SSW,210,3.0,6.0,50,0.00,,,0.00,meteohub,2013-02-26 02:22:00,
2013-02-25 20:27:00,40.6,23.0,28.95,NW,325,3.0,6.0,49,0.00,,,0.00,meteohub,2013-02-26 02:27:00,
2013-02-25 20:32:00,40.8,23.2,28.95,West,263,3.0,5.0,49,0.00,,,0.00,meteohub,2013-02-26 02:32:00,
2013-02-25 20:37:00,40.8,23.2,28.95,NNE,33,4.0,5.0,49,0.00,,,0.00,meteohub,2013-02-26 02:37:00,
2013-02-25 20:42:00,40.8,23.2,28.95,WNW,291,4.0,7.0,49,0.00,,,0.00,meteohub,2013-02-26 02:42:00,
2013-02-25 20:47:00,40.8,23.2,28.95,WNW,301,2.0,7.0,49,0.00,,,0.00,meteohub,2013-02-26 02:47:00,
2013-02-25 20:52:00,41.0,22.8,28.95,NW,307,3.0,6.0,48,0.00,,,0.00,meteohub,2013-02-26 02:52:00,
2013-02-25 20:57:00,41.0,22.8,28.98,WSW,256,4.0,6.0,48,0.00,,,0.00,meteohub,2013-02-26 02:57:00,
2013-02-25 21:02:00,41.0,22.8,28.98,NW,308,3.0,5.0,48,0.00,,,0.00,meteohub,2013-02-26 03:02:00,
2013-02-25 21:08:00,41.0,22.8,28.98,NW,315,4.0,5.0,48,0.00,,,0.00,meteohub,2013-02-26 03:08:00,
2013-02-25 21:13:00,41.0,23.4,28.98,NW,311,4.0,5.0,49,0.00,,,0.00,meteohub,2013-02-26 03:13:00,
2013-02-25 21:18:00,41.0,23.4,28.98,NW,311,0.0,5.0,49,0.00,,,0.00,meteohub,2013-02-26 03:18:00,
2013-02-25 21:23:00,41.0,23.4,28.98,NW,311,4.0,5.0,49,0.00,,,0.00,meteohub,2013-02-26 03:23:00,
2013-02-25 21:28:00,41.0,23.4,28.98,SE,144,3.0,4.0,49,0.00,,,0.00,meteohub,2013-02-26 03:28:00,
2013-02-25 21:33:00,41.0,23.4,28.98,NW,310,3.0,5.0,49,0.00,,,0.00,meteohub,2013-02-26 03:33:00,
2013-02-25 21:38:00,41.0,23.4,28.98,South,183,4.0,5.0,49,0.00,,,0.00,meteohub,2013-02-26 03:38:00,
2013-02-25 21:43:00,40.8,23.5,29.01,NW,312,5.0,6.0,50,0.00,,,0.00,meteohub,2013-02-26 03:43:00,
2013-02-25 21:48:00,40.6,23.9,29.01,NNW,343,4.0,8.0,51,0.00,,,0.00,meteohub,2013-02-26 03:48:00,
2013-02-25 21:53:00,40.5,23.7,29.01,NNW,327,4.0,8.0,51,0.00,,,0.00,meteohub,2013-02-26 03:53:00,
2013-02-25 21:58:00,40.5,23.7,29.01,ENE,74,3.0,8.0,51,0.00,,,0.00,meteohub,2013-02-26 03:58:00,
2013-02-25 22:04:00,40.6,23.9,29.01,NW,314,4.0,8.0,51,0.00,,,0.00,meteohub,2013-02-26 04:04:00,
2013-02-25 22:09:00,40.5,23.7,29.01,ESE,120,4.0,7.0,51,0.00,,,0.00,meteohub,2013-02-26 04:09:00,
2013-02-25 22:14:00,40.5,23.7,29.01,WNW,297,3.0,8.0,51,0.00,,,0.00,meteohub,2013-02-26 04:14:00,
2013-02-25 22:19:00,40.6,23.9,29.01,NW,306,3.0,8.0,51,0.00,,,0.00,meteohub,2013-02-26 04:19:00,
2013-02-25 22:24:00,40.6,23.5,29.01,NNW,339,3.0,8.0,50,0.00,,,0.00,meteohub,2013-02-26 04:24:00,
2013-02-25 22:29:00,40.6,23.5,29.04,NW,307,3.0,8.0,50,0.00,,,0.00,meteohub,2013-02-26 04:29:00,
2013-02-25 22:34:00,40.6,23.5,29.04,NW,313,4.0,8.0,50,0.00,,,0.00,meteohub,2013-02-26 04:34:00,
2013-02-25 22:39:00,40.6,23.5,29.04,NNW,329,5.0,6.0,50,0.00,,,0.00,meteohub,2013-02-26 04:39:00,
2013-02-25 22:44:00,40.8,23.5,29.04,West,281,0.0,6.0,50,0.00,,,0.00,meteohub,2013-02-26 04:44:00,
2013-02-25 22:50:00,40.8,23.5,29.04,North,4,3.0,6.0,50,0.00,,,0.00,meteohub,2013-02-26 04:50:00,
2013-02-25 22:55:00,40.8,23.5,29.04,NW,325,3.0,6.0,50,0.00,,,0.00,meteohub,2013-02-26 04:55:00,
2013-02-25 23:00:00,40.8,23.5,29.04,NW,308,3.0,6.0,50,0.00,,,0.00,meteohub,2013-02-26 05:00:00,
2013-02-25 23:01:00,40.8,23.5,29.04,NW,307,3.0,6.0,50,0.00,,,0.00,meteohub,2013-02-26 05:01:00,
2013-02-25 23:02:00,40.8,23.5,29.04,NNW,330,8.0,8.0,50,0.00,,,0.00,meteohub,2013-02-26 05:02:00,
2013-02-25 23:07:00,41.0,23.4,29.04,NW,322,6.0,8.0,49,0.00,,,0.00,meteohub,2013-02-26 05:07:00,
2013-02-25 23:12:00,41.0,23.4,29.04,NW,307,4.0,8.0,49,0.00,,,0.00,meteohub,2013-02-26 05:12:00,
2013-02-25 23:17:00,41.0,23.4,29.04,NW,308,4.0,8.0,49,0.00,,,0.00,meteohub,2013-02-26 05:17:00,
2013-02-25 23:22:00,41.2,23.5,29.04,NNW,331,0.0,6.0,49,0.00,,,0.00,meteohub,2013-02-26 05:22:00,
2013-02-25 23:27:00,41.2,23.5,29.04,NNW,332,5.0,6.0,49,0.00,,,0.00,meteohub,2013-02-26 05:27:00,
2013-02-25 23:32:00,41.2,23.5,29.04,NW,304,2.0,8.0,49,0.00,,,0.00,meteohub,2013-02-26 05:32:00,
2013-02-25 23:38:00,41.0,23.4,29.04,NW,318,5.0,8.0,49,0.00,,,0.00,meteohub,2013-02-26 05:38:00,
2013-02-25 23:43:00,41.0,23.4,29.07,WSW,251,5.0,8.0,49,0.00,,,0.00,meteohub,2013-02-26 05:43:00,
2013-02-25 23:48:00,40.8,23.2,29.07,NW,309,3.0,7.0,49,0.00,,,0.00,meteohub,2013-02-26 05:48:00,
2013-02-25 23:53:00,40.8,23.2,29.07,SW,235,3.0,8.0,49,0.00,,,0.00,meteohub,2013-02-26 05:53:00,
2013-02-25 23:58:00,40.8,23.2,29.07,NW,323,4.0,8.0,49,0.00,,,0.00,meteohub,2013-02-26 05:58:00,